Location: Arrodets-la-Barthe
(43.0306°N, 0.2829°E)
Time: 18:08:54
(UTC+00:00)

USA 229 DEB - Pass Details

Date: 24 October 2021
Orbit: 944 x 1268 km, 63.4° (Epoch: 25 November)

Event Time Altitude Azimuth Distance (km) Brightness Sun altitude
Rises 19:13:11 0° 230° (SW) 3,626 7.1 -24.6°
Reaches altitude 10° 19:15:44 10° 234° (SW) 2,706 6.4 -25.1°
Maximum altitude 19:21:56 56° 313° (NW) 1,190 4.1 -26.2°
Enters shadow 19:26:54 18° 26° (NNE) 2,312 5.3 -27.1°
